Weather Roundup
Issued by NWS Corpus Christi, TX

Home | Current Version | Previous Version | Text Only | Print | Product List | Glossary On
Versions: 1 2 3 4 5 6 7 8 9 10 11 12 13 14 15 16 17 18 19 20 21 22 23 24 25 26 27 28 29 30 31 32 33 34 35 36 37 38 39 40 41 42 43 44 45 46 47 48 49 50
000
ASUS44 KCRP 202110
HRRCRP

SOUTH TEXAS REGIONAL WEATHER ROUNDUP
NATIONAL WEATHER SERVICE CORPUS CHRISTI TX
300 PM CST SAT DEC 20 2014


TXZ229>244-202200-
...CORPUS CHRISTI AREA OBSERVATIONS...

CITY           SKY/WX    TMP DP  RH WIND       PRES   REMARKS
CORPUS CHRISTI CLOUDY    57  50  77 N6        30.14F
NAS CORPUS CHR CLOUDY    55  53  93 MISG      30.13F
ROCKPORT       CLOUDY    56  49  77 NE7       30.15F
KINGSVILLE NAS CLOUDY    57  52  83 N6        30.14F
ALICE          CLOUDY    56  49  77 MISG      30.14F
FALFURRIAS     CLOUDY    54  49  82 N5        30.14F
$$

...VICTORIA AREA OBSERVATIONS...

CITY           SKY/WX    TMP DP  RH WIND       PRES   REMARKS
VICTORIA       CLOUDY    58  50  75 N3        30.16S
BEEVILLE       CLOUDY    55  48  80 N3        30.14F
PLEASANTON     CLOUDY    56  45  67 NE5       30.16F
SAN ANTONIO    MOSUNNY   59  44  57 VRB6      30.13F
$$

...LAREDO AREA OBSERVATIONS...

CITY           SKY/WX    TMP DP  RH WIND       PRES   REMARKS
LAREDO         CLOUDY    54  46  76 CALM      30.17F
COTULLA        CLOUDY    55  45  68 E3        30.15F
DEL RIO        PTSUNNY   59  47  64 SE10      30.09F
MCALLEN        CLOUDY    58  52  80 N9        30.12F
HEBBRONVILLE   CLOUDY    52  47  81 NE3       30.15S HAZE
$$

...OTHER TEXAS OBSERVATIONS...

CITY           SKY/WX    TMP DP  RH WIND       PRES   REMARKS
BROWNSVILLE    CLOUDY    59  53  80 N14       30.11F
HOUSTON        CLOUDY    54  49  83 N7        30.15F
COL. STATION   CLOUDY    53  47  79 N9        30.16F
AUSTIN         CLOUDY    54  46  74 N10       30.15F
WACO           CLOUDY    50  44  80 N7        30.18F
FORT WORTH     CLOUDY    46  42  86 NE3       30.19S
WICHITA FALLS  CLOUDY    45  40  82 SE13      30.15F
LUBBOCK        CLOUDY    46  38  73 S13       30.05F
EL PASO        PTSUNNY   55  27  34 SW13      30.08F
$$

...MARINE OBSERVATIONS...

STATION/POSITION TIME  SKY/WX   TEMP    WIND        PRES    VSBY  WAVE   SWELL
                                AIR SEA DIR/SP/G                  HT/PER HT/PER
                 (UTC)          (F)     (DEG/KT/KT) (MB)    (MI)  (FT/S) (FT/S)
PORT ARANSAS     2100            54 63  360/  9/ 10 1020.9F
BUOY 90 E PORT A 2100            61 72  360/ 12/ 16 1019.6F         5/ 6   3/ 6
BUOY 45 SE BAFFI 2100            61 73  350/ 17/ 21 1018.9F         5/ 6
BUOY 200 E PT IS 2100            70 73   20/ 14/ 17 1016.3F         5/ 7   3/ 7
BUOY 15 E GALVES 2100            55 64   20/ 12/ 16 1019.8R         3/ 4
$$



USA.gov is the U.S. government's official web portal to all federal, state and local government web resources and services.